STARLINK-5556, 55385

Orbit data source: Space-Track

STARLINK-5556, 55385 is a payload satellite owned by SpaceX/Seattle (US) in LEO that was launched on Thu, 26 Jan 2023 UTC via an FALCON 9 launch vehicle from the Air Force Eastern Test Range (AFETR). Payload-class satellites include a variety of spacecraft equipped with specific instruments for various scientific and technological missions. These include communications satellites like Starlink; space stations such as the ISS; scientific satellites like the Hubble; Earth observation satellites from companies like Planet Labs, Umbra, and HawkEye 360; GPS; miniature CubeSats for education and research; and military/defense satellites.

Loading next visibility...
Identifier
55385, 2023-013BG
Orbit
LEO
Country
Flag of USUS
Related business
Manufacturer
SpaceX/Seattle
Mission
Operational Commercial Communications
Bus & Motor
STARLINK, Unknown motor
Mass
305 kg wet, ~290 kg dry
Launch date (UTC)
2023-01-26 (3 years ago)
Launch vehicle
FALCON 9
Launch site
Air Force Eastern Test Range (AFETR)
Object type
Payload
Rocket body
Debris
Shape & HBR
Box + 1 Pan, 10.1 m
Radar Cross Section
13.562 m², Large (>1 m²)

Expand to show TLE details & history
Last TLE update: 1 day ago

TLE from 1 day ago
0 STARLINK-5556
1 55385U 23013BG  25348.25275470  .00001671  00000-0  13873-3 0  9999
2 55385  43.0046  57.0303 0001227 274.8358  85.2344 15.02535596158711
Epoch: 2025-12-14T06:03Z
TLE epoch observation values (Epoch: 2025-12-14T06:03:58.006Z)
Latitude
-0.00002°
Longitude
-117.12974°
Altitude
558.789 km
Speed
7.584 km/s
True Right ascension
03h 48m 07s
True Declination
0° 00' 00"
Sunlit
Object was in full shadow at epoch
Visualization orbit readout
Latitude
Unknown
Longitude
Unknown
Altitude
Unknown
Speed
Unknown
Apparent Right ascension
Unknown
Apparent Declination
Unknown
Sunlit
N/A
Visualization observer readout
Local Sidereal Time
15:11:07
Azimuth
Unknown
Elevation
Unknown
Doppler factor
Unknown
Orbital elements
Apogee altitude
561.855 km
Perigee altitude
560.153 km
Semi-major axis
6,939.141 km
Eccentricity
0.00012
Inclination
43.0046°
RAAN
57.0303°
Arg. of periapsis
274.8358°
True anomaly
85.24841°
Mean anomaly
85.2344°
Eccentric anomaly
85.24141°
Mean motion
3.75478 °/min
Orbital period
95.88 mins
BSTAR
0.00013873
Loading maneuver chart data...
Computing Atmospheric mass density...
Loading historical data...
Loading historical data...
Loading historical data...
Loading historical data...
Loading historical data...
Loading historical data...
Loading historical data...

Documentation

Showing up to 5 results
|